Simultaneous Nadir Overpasses (SNOs) Predictions

Prediction of SNOs between FY3D and METOP-A Satellite Orbit:

Table of predicted SNOs for the next 14.0 days since TLE Epoch: 10/3/2020
Index Date (FY3D) Time (FY3D) Lat,Lon (FY3D) SZA (FY3D ) Date (METOP-A) Time (METOP-A) Lat,Lon (METOP-A) SZA (METOP-A ) Distance(km) Time Diff (sec)
1 10/03/2020 03:20:17 76.04, 114.87 80.40 10/03/2020 03:19:04 76.04, 114.90 80.42 1.11 73
2 10/03/2020 04:11:00 -76.02, -77.76 99.62 10/03/2020 04:09:46 -76.03, -77.81 99.59 1.96 74
3 10/03/2020 05:01:41 75.80, 90.28 80.15 10/03/2020 05:00:30 75.84, 88.89 80.28 37.86 71
4 10/03/2020 05:52:24 -75.79,-102.35 99.86 10/03/2020 05:51:13 -75.78,-103.96 99.76 43.99 71
5 10/03/2020 06:43:04 75.52, 65.81 79.86 10/03/2020 06:41:58 75.53, 62.62 80.06 88.74 66
6 10/03/2020 07:33:46 -75.46,-126.68 100.20 10/03/2020 07:32:41 -75.48,-130.23 99.98 99.03 65
